Kosmos-829

operational
NORAD ID: 8893 Int'l Des: 1976-054 Owner: GUKOSR Country: SU
LEOCIRCULAR

Kosmos-829について

説明を読み込み中...

リアルタイム位置

3D地球を読み込み中...

次回通過

高度履歴

Altitude vs Time

uPlot chart will show altitude changes over time

軌道要素

1 08893U 76054E 26062.60038125 .00000020 00000-0 23990-3 0 9999
2 08893 73.9995 124.5788 0026161 329.7007 199.4204 12.48678737266108
Epoch: Mar 3, 2026 • Age: 35 hours

現在のステータス

高度 1473.6 km
速度 7.13 km/s
衛星直下点 46.97°N, 175.26°E
タイプ other

大規模コンステレーション

Loading constellations...